Theta_e
312 312 312 313 313 312 312 311 311 309 309 306 303 302 293 292 290 300 303 305 300 292 286 291 291 287 290 294 293 293 291 290 291 290 291 290 293 290 289 289 287 288 286 286 285 286 284 287 285 289 289 288 291 294 294 295 293 294 291 293 293 302 288 285 286 288 291 294 296 297 298 297 295 297 298 296 295 296 297 296 291 292 290 293 293 290 295
312 312 312 313 313 312 312 311 311 310 309 306 305 299 294 294 293 296 303 305 299 292 283 283 285 289 291 291 291 294 291 291 290 290 291 290 290 289 289 292 291 287 289 287 285 288 280 289 288 285 290 288 295 293 294 296 292 292 291 290 296 288 288 285 280 281 287 293 294 295 297 296 292 291 293 295 296 296 295 294 293 294 291 294 290 287 295
312 313 313 313 312 312 311 310 310 311 311 310 305 296 297 296 297 295 299 303 299 289 289 286 285 288 287 288 288 289 291 293 292 290 290 292 291 289 288 291 290 288 290 287 288 289 286 283 290 289 290 290 295 295 295 296 293 295 298 301 301 292 290 284 277 276 280 282 284 283 283 287 291 293 293 294 293 292 293 292 292 289 292 294 291 293 299
313 313 313 312 312 312 311 311 311 311 311 309 305 299 297 290 284 291 292 295 294 294 295 291 288 286 287 287 288 289 287 291 293 293 291 293 291 289 290 289 290 288 288 285 286 286 289 286 285 287 287 289 294 294 294 295 294 298 302 301 297 290 292 288 285 282 281 284 284 289 290 289 287 289 291 291 293 294 295 293 289 290 289 292 294 297 299
312 313 313 312 312 312 311 311 311 311 310 310 305 301 294 291 285 287 285 292 292 290 292 291 289 286 290 282 287 287 288 289 290 293 287 292 291 290 289 289 286 286 286 285 284 286 286 288 286 285 286 289 292 296 294 295 296 299 298 299 294 291 285 287 288 287 287 289 288 290 291 288 289 289 289 292 292 293 292 291 291 295 290 290 295 296 296
312 313 313 313 312 312 311 311 311 311 310 310 305 295 295 284 288 292 294 288 285 288 289 291 289 290 290 286 291 288 287 287 285 290 292 292 292 287 288 289 289 288 286 286 282 283 284 284 283 287 288 289 291 290 294 292 296 298 295 297 292 288 285 288 288 287 289 290 290 291 291 290 290 290 291 290 292 293 291 292 295 295 294 293 296 296 296
312 313 313 313 312 311 312 311 311 311 310 309 305 295 297 293 293 294 298 291 293 292 292 293 290 287 288 289 290 287 287 286 288 287 287 290 289 290 282 286 288 288 288 286 282 282 279 279 284 285 285 286 287 286 290 292 297 295 293 293 294 290 286 288 289 287 288 289 289 290 289 289 290 290 291 292 292 293 294 294 295 296 294 296 297 297 297
312 312 313 313 312 312 312 311 311 311 309 308 303 301 294 292 290 292 298 296 294 294 292 291 289 285 291 286 287 289 288 286 289 291 288 284 287 292 287 287 289 289 288 286 283 284 285 285 282 286 286 285 287 286 287 288 295 296 290 291 293 290 286 293 289 286 285 288 291 291 290 290 288 291 292 295 298 299 300 299 298 298 296 297 296 297 298
313 313 313 312 312 312 312 312 311 311 310 304 302 299 303 302 303 301 294 290 293 294 293 290 288 284 285 284 287 290 289 287 290 288 292 289 285 290 288 290 289 290 289 287 286 289 288 288 287 289 288 284 289 285 287 292 288 291 290 291 291 291 287 291 288 283 283 288 289 289 290 290 289 290 294 296 297 299 299 298 301 297 294 295 295 295 297
312 312 312 312 312 312 312 311 311 311 311 304 303 297 307 304 307 305 298 289 295 291 292 291 289 284 287 291 290 289 288 291 292 287 293 294 293 292 291 291 289 287 287 286 288 290 291 291 292 292 292 292 292 292 292 293 290 289 290 293 289 289 288 286 286 282 281 287 289 288 288 292 291 292 295 296 298 302 306 306 306 305 305 299 296 296 303
312 312 312 313 313 313 313 312 312 312 310 304 302 301 303 300 298 299 298 289 292 292 290 289 287 291 292 293 290 292 290 292 293 287 287 292 293 295 293 290 287 285 285 289 294 295 295 295 295 295 293 292 291 291 292 293 294 293 291 290 290 290 288 286 289 280 280 285 287 288 289 284 286 298 300 300 298 299 301 303 304 305 306 304 307 308 312
312 312 312 312 313 313 313 313 312 310 309 308 308 303 305 307 303 299 294 287 289 292 290 288 289 291 291 292 292 290 290 291 291 294 289 290 292 294 293 291 289 284 290 296 297 297 296 296 294 293 292 291 291 291 291 290 292 297 295 291 289 288 289 287 288 282 279 284 287 290 284 286 297 301 301 303 302 302 299 305 307 306 306 306 306 310 315
312 312 312 313 313 313 313 313 313 311 310 310 307 303 308 309 302 299 296 291 288 290 289 290 293 293 293 292 292 291 293 294 294 295 294 292 291 292 293 291 290 292 298 296 296 294 289 287 288 288 288 290 289 289 289 289 290 294 295 294 290 288 287 288 287 284 285 282 281 280 284 297 303 301 301 304 304 302 301 304 307 306 305 306 305 309 318
312 312 313 313 313 313 313 313 313 313 311 309 307 307 308 307 300 299 296 291 290 293 293 292 293 292 293 293 292 293 294 293 293 293 290 294 291 291 293 295 295 298 298 297 293 289 285 283 282 282 284 289 290 288 290 290 291 292 293 293 293 291 290 289 284 287 278 280 280 283 291 296 296 296 296 299 296 297 296 295 305 306 306 306 306 307 313
312 313 313 313 313 313 313 313 314 313 312 309 309 308 307 307 305 301 301 297 290 293 295 288 291 292 293 293 293 292 291 289 289 290 294 295 292 294 294 297 299 298 297 292 287 287 284 282 280 279 282 281 279 282 291 287 291 293 293 294 293 293 287 289 284 283 286 278 277 280 285 286 291 297 299 302 303 303 303 299 303 307 307 308 307 304 307
312 313 313 313 314 314 314 314 314 313 312 309 309 308 308 309 308 306 301 296 293 286 291 295 296 294 292 293 294 292 289 287 286 288 289 289 290 294 297 298 299 298 295 292 288 287 285 281 281 280 279 281 285 283 283 288 288 292 294 293 293 293 293 291 286 283 282 280 276 277 281 289 294 295 299 302 304 304 305 299 299 305 306 307 307 304 305
312 313 313 313 314 314 314 314 313 312 312 309 307 308 306 311 307 304 301 299 296 290 299 299 298 296 295 293 294 291 291 286 288 287 286 288 290 292 294 298 298 296 295 290 288 286 284 282 283 282 283 286 282 283 286 286 285 286 291 292 290 289 289 288 284 283 283 282 279 277 285 283 295 298 301 304 306 307 302 295 295 304 306 306 308 305 305
312 313 313 314 314 314 314 314 314 313 312 311 309 307 307 311 310 307 303 299 294 294 298 300 297 294 292 294 292 295 295 293 292 294 291 290 290 289 292 294 291 295 298 289 289 283 283 282 281 281 281 287 287 286 280 285 284 285 285 286 285 286 287 287 283 283 285 285 282 286 289 298 299 301 304 306 307 305 296 289 297 306 307 307 308 305 306
312 313 313 314 314 314 314 314 314 313 313 309 309 308 307 310 310 309 303 300 297 291 298 302 302 298 299 301 296 297 297 295 293 290 289 288 287 292 294 295 294 287 292 288 286 284 283 284 287 284 282 285 287 282 286 284 283 289 289 285 286 288 288 290 288 284 282 283 282 282 287 297 302 304 306 307 304 293 291 303 309 307 305 305 308 306 307
312 313 313 313 313 314 314 314 313 313 313 310 308 305 307 311 311 309 303 298 299 296 298 299 300 296 300 297 292 292 293 295 295 291 288 285 290 294 290 285 288 292 289 289 284 288 284 282 284 285 284 284 285 288 285 286 289 285 286 291 288 286 286 285 285 290 290 289 286 285 282 294 304 305 304 304 297 298 304 306 307 307 305 304 305 307 307
312 313 313 313 313 313 313 313 313 313 313 312 308 306 304 308 310 311 309 304 299 294 295 302 301 299 299 298 299 299 296 293 293 290 292 291 293 291 282 283 285 289 286 287 282 283 286 283 285 284 287 285 287 288 282 284 286 292 292 290 288 292 286 286 288 292 285 285 283 283 293 298 304 303 295 299 299 304 305 306 304 306 306 305 303 304 307
312 312 313 313 313 313 313 313 313 312 312 312 309 308 302 306 310 310 309 308 301 297 298 299 302 301 303 304 303 302 301 301 301 301 296 293 293 292 291 291 291 290 291 292 288 287 288 289 290 286 284 286 290 284 286 283 281 287 294 294 283 292 288 291 285 294 287 286 291 295 299 301 303 303 302 303 304 304 305 304 302 302 301 305 305 304 306
312 312 312 313 313 313 313 313 312 312 312 312 310 306 302 302 303 312 309 303 305 305 306 303 303 303 305 306 308 308 307 307 305 304 302 296 293 292 291 290 290 295 296 296 290 289 289 289 285 290 286 287 285 284 287 287 284 287 285 294 292 297 297 298 294 290 294 296 299 298 297 297 301 304 304 302 303 304 305 303 301 302 302 303 304 305 307
312 312 312 312 312 312 312 312 312 312 312 312 309 305 304 305 305 306 306 305 300 294 295 293 293 293 295 299 304 308 309 307 306 306 307 303 293 292 296 296 296 296 293 296 297 292 291 291 291 292 285 290 291 285 282 283 285 289 289 288 292 296 297 295 289 292 289 288 296 295 294 296 298 302 304 305 305 304 305 303 302 302 303 303 305 306 308
312 312 312 312 312 312 312 312 311 311 311 311 311 310 307 305 308 307 301 296 296 294 288 291 292 299 303 305 307 306 306 308 310 308 306 305 301 295 293 297 300 293 293 295 298 295 293 289 289 290 285 293 293 284 291 286 286 293 285 288 290 290 299 293 291 290 290 290 293 295 296 298 300 305 302 302 302 303 303 304 305 304 305 305 305 307 309
311 312 312 312 312 312 312 311 310 311 311 312 312 305 305 305 309 309 306 302 301 299 292 290 294 302 305 305 304 306 309 309 308 307 306 306 305 303 301 302 301 302 299 301 295 294 291 290 290 290 288 289 298 287 287 292 291 295 290 288 294 294 296 287 291 289 291 294 296 295 296 301 302 303 303 303 303 302 302 303 304 304 304 304 305 307 310
311 312 312 312 312 311 311 310 312 311 311 310 306 303 303 304 309 308 303 301 292 287 290 289 293 298 302 301 305 308 310 308 307 307 306 306 305 306 304 301 299 299 298 296 297 294 292 291 290 289 291 291 296 293 294 292 292 290 289 292 297 293 288 292 291 287 286 288 290 294 288 289 294 297 299 300 302 303 302 302 303 303 303 304 304 306 310
311 311 312 312 311 311 311 311 311 311 309 310 308 305 306 306 307 309 307 304 297 288 289 289 291 297 303 299 305 307 309 308 306 306 305 305 305 305 303 302 302 300 299 296 292 293 292 290 289 295 296 297 292 290 297 296 296 291 290 291 296 291 291 292 288 287 286 292 295 296 295 294 295 297 299 300 302 302 301 301 301 303 304 304 304 305 307
311 311 311 311 311 311 311 311 311 311 311 307 305 305 305 306 308 309 310 308 305 301 297 296 297 294 292 297 304 305 308 307 307 305 305 305 305 306 305 305 303 303 301 299 297 295 292 292 295 292 292 298 294 290 292 286 287 284 289 295 296 296 298 295 294 294 295 297 296 297 296 294 296 299 300 300 302 302 301 302 303 304 304 305 305 306 306
311 311 312 311 311 311 311 311 312 312 310 304 306 306 301 303 305 307 309 310 305 303 294 290 286 291 298 301 302 305 307 307 306 306 305 305 305 306 306 305 303 304 301 297 296 289 293 292 294 297 300 302 293 292 288 289 287 288 294 295 297 297 298 298 298 295 293 297 298 298 298 298 299 300 301 301 303 304 302 302 303 304 305 306 305 306 309
311 311 311 311 310 310 311 311 312 312 308 301 299 294 290 290 300 310 311 310 305 301 297 295 291 296 293 299 301 301 305 306 303 303 303 303 301 303 305 306 304 304 297 296 296 295 296 292 294 295 300 300 297 291 288 288 286 288 293 295 296 296 297 297 299 299 298 298 299 299 299 299 300 301 301 302 303 303 304 305 307 309 308 308 306 306 309
311 311 310 310 310 311 311 312 312 311 302 301 297 296 296 298 302 305 311 309 306 302 296 290 289 287 288 295 300 305 306 305 306 303 300 304 298 301 299 302 299 303 301 295 295 294 293 295 295 295 294 298 297 291 291 288 286 287 294 295 297 297 298 298 298 299 299 300 298 296 296 297 299 297 297 301 302 304 304 304 305 306 309 309 309 309 310
311 310 309 310 310 311 312 312 313 309 302 303 307 308 307 308 309 310 311 306 304 300 299 292 287 288 289 293 299 302 305 299 298 296 295 302 298 299 295 301 300 299 306 297 291 290 295 296 295 293 296 299 293 291 288 287 289 294 296 296 297 297 298 299 299 299 299 299 299 294 293 295 297 299 301 301 303 304 305 305 305 305 305 305 305 307 309
311 310 310 310 311 311 311 312 312 310 308 303 300 300 304 308 308 308 307 304 300 299 295 290 288 287 290 297 295 300 306 297 294 293 290 300 300 295 294 297 297 295 295 294 294 294 295 297 292 292 296 293 295 290 285 290 295 295 296 296 297 297 298 298 298 297 298 298 299 299 298 299 300 301 302 302 304 306 308 306 305 303 303 303 304 307 307
310 309 310 311 311 312 312 309 302 304 298 298 299 302 305 310 309 310 309 302 293 292 292 291 290 287 288 288 287 292 302 299 295 296 291 294 304 296 296 292 292 290 293 299 291 292 291 293 296 290 287 294 290 285 287 292 294 295 295 295 297 297 297 296 296 298 298 299 299 299 299 299 299 299 300 301 302 305 305 304 304 302 302 303 304 306 307
309 310 310 311 311 312 307 308 302 300 298 299 299 309 313 313 312 304 304 304 298 291 288 286 289 288 288 286 287 296 307 299 297 296 295 297 296 299 297 291 287 291 298 293 289 291 289 297 294 286 292 288 287 289 291 294 294 295 296 296 297 297 296 296 297 298 298 298 298 299 298 298 298 298 300 301 302 304 304 303 303 302 301 301 302 303 304
311 311 312 311 307 305 300 301 307 304 302 302 307 315 314 312 307 307 304 302 302 303 293 285 287 288 290 287 291 295 300 291 295 294 293 292 292 297 295 287 287 295 292 288 289 289 292 301 292 287 287 286 289 296 296 297 296 296 296 297 299 298 298 298 299 298 296 296 297 297 297 297 297 298 299 300 301 303 303 301 301 301 300 300 301 302 302
311 310 302 302 302 300 301 302 303 305 314 313 313 305 302 303 297 296 297 293 298 304 295 291 286 285 293 290 288 297 298 291 294 292 289 295 291 289 296 291 291 293 282 286 289 296 293 291 288 286 289 294 297 297 297 298 298 299 299 300 299 298 298 299 299 297 295 293 294 295 296 296 296 297 298 299 301 302 304 304 302 302 302 303 303 303 303
307 304 302 301 301 300 302 305 308 315 308 309 308 304 300 299 293 291 293 293 297 294 295 291 287 287 290 290 292 299 297 295 293 290 289 294 293 288 293 285 291 290 280 283 289 298 286 285 288 288 287 293 294 296 299 299 299 299 300 300 300 300 300 299 299 297 295 294 295 296 296 295 295 296 298 299 301 303 305 306 303 302 302 302 303 304 304
305 303 303 302 304 305 308 309 313 309 309 304 303 298 294 296 292 288 292 289 290 297 295 288 290 291 295 294 293 291 302 297 292 289 288 291 299 288 293 289 290 289 280 280 288 298 287 284 287 287 286 292 293 297 298 298 298 299 300 300 301 301 300 299 300 300 299 298 299 299 299 299 299 298 299 299 300 301 303 307 306 303 302 302 304 304 303
304 307 307 305 306 304 303 304 303 304 304 302 299 298 294 287 293 294 293 286 284 287 295 292 295 295 299 296 294 292 299 306 298 297 295 292 298 297 286 283 294 284 280 281 292 294 287 285 286 285 287 294 295 297 298 298 298 300 300 300 301 301 299 299 300 300 299 298 298 298 299 300 299 299 300 300 300 301 303 305 307 308 305 302 304 306 306
305 305 305 305 303 301 302 304 302 302 304 302 293 286 285 291 292 288 290 288 287 291 293 296 294 292 294 299 296 295 296 301 301 303 294 289 297 291 286 289 291 283 281 288 296 290 287 285 285 285 292 295 297 298 297 297 298 298 299 300 300 300 299 299 299 300 299 298 298 298 298 299 299 299 300 300 300 301 302 303 305 308 308 308 306 304 306
307 306 303 301 302 301 301 291 297 292 284 284 281 282 285 282 286 287 288 292 294 295 293 299 299 299 303 305 298 300 298 304 299 298 294 288 290 288 284 280 282 277 284 295 289 283 283 284 284 288 294 296 298 297 297 298 298 298 299 301 300 299 299 299 299 299 298 298 298 298 298 298 299 299 300 300 300 300 301 303 305 306 308 309 309 309 309
308 308 305 304 300 304 301 289 299 299 288 281 280 282 283 282 283 285 286 286 287 293 293 294 293 295 293 297 296 297 299 300 300 296 294 292 287 283 282 280 281 289 294 285 284 280 284 289 291 293 296 297 298 298 298 298 297 297 298 299 300 300 300 300 299 299 298 298 298 299 299 298 299 300 300 300 300 299 299 300 303 305 306 307 307 307 309
306 296 290 292 289 292 289 284 288 283 284 284 287 284 284 284 284 282 286 290 293 293 294 295 294 294 296 299 299 299 297 294 298 292 287 293 288 287 285 283 287 286 283 280 284 287 288 287 293 295 296 296 297 298 298 297 296 296 296 298 299 300 300 299 299 299 298 298 297 298 297 298 298 298 299 299 300 300 299 298 300 302 302 302 303 305 307
301 294 288 287 285 286 285 283 282 283 287 289 288 286 286 286 287 289 292 294 292 293 294 294 296 297 296 298 295 293 295 294 290 289 291 288 285 284 290 290 288 283 283 283 281 283 284 289 293 294 296 296 297 298 298 297 297 297 295 295 298 299 299 299 299 299 300 299 298 298 298 298 298 298 298 299 299 300 299 299 300 300 300 300 301 302 303
296 296 286 286 285 285 289 286 284 287 291 289 290 290 290 292 292 293 293 294 293 295 295 296 295 299 295 297 296 292 292 293 289 291 290 285 286 287 292 284 280 282 280 279 280 282 287 291 295 296 297 297 297 298 297 296 296 296 295 296 297 298 299 299 299 300 300 300 299 298 298 298 298 298 299 298 299 299 300 300 300 300 300 299 300 301 301
295 292 289 289 285 285 287 288 289 291 293 295 291 291 292 293 292 292 295 295 295 296 295 295 294 293 292 293 292 290 289 289 287 286 292 289 289 283 280 286 285 287 285 282 283 287 289 292 294 296 296 298 297 297 297 295 295 295 296 296 297 298 298 298 299 299 301 300 299 299 299 298 298 298 298 298 298 299 299 299 300 300 300 300 300 300 300
293 289 292 286 288 288 288 291 292 291 291 290 291 291 292 294 294 294 296 295 296 297 296 294 295 291 288 291 289 288 286 288 282 282 286 284 281 279 281 278 279 277 285 288 286 288 290 293 296 297 297 297 298 298 296 295 295 295 295 296 297 298 297 298 299 300 301 300 300 300 299 299 298 298 298 298 297 298 299 299 299 299 299 299 299 299 299
295 293 291 288 291 290 291 290 290 290 288 289 290 291 291 292 291 294 296 298 296 296 295 296 295 290 288 289 283 282 284 285 287 283 281 281 283 282 279 275 279 281 283 285 287 290 293 295 295 295 296 296 299 298 295 294 297 297 295 297 299 298 297 297 298 299 299 300 301 300 300 299 298 297 297 297 298 299 299 299 299 298 299 299 299 299 299
291 289 290 293 293 290 292 292 291 290 290 289 288 290 291 292 292 293 296 298 294 291 291 289 286 285 283 280 279 281 285 290 286 283 281 282 284 281 276 276 280 284 288 292 293 294 295 296 296 296 296 296 296 296 295 295 295 294 295 297 297 296 296 296 296 297 298 298 300 303 300 300 300 299 299 299 299 298 298 299 300 299 299 299 299 298 298
289 293 296 296 296 294 294 293 293 292 293 293 293 293 294 295 295 295 297 294 292 290 289 290 288 284 281 283 286 287 289 285 283 282 281 282 284 281 281 282 286 290 292 291 292 293 297 296 297 299 297 297 301 297 295 295 295 294 295 296 296 297 296 296 296 295 296 296 298 300 301 302 302 300 300 299 298 297 296 297 299 300 300 299 299 299 298
Wind_Speed
19 19 19 18 16 15 15 14 15 18 19 10 10 6 3 5 2 6 10 15 7 8 6 2 5 3 2 6 2 3 2 3 4 3 3 3 3 3 3 1 5 2 1 1 0 0 1 3 4 2 1 2 3 2 4 5 6 5 2 6 2 8 1 3 7 7 11 15 15 12 6 7 4 3 2 4 2 4 8 5 5 6 1 7 8 9 12
19 18 18 17 15 14 14 13 13 15 13 7 8 5 2 2 4 6 7 15 3 12 5 5 5 3 6 2 3 4 2 6 8 3 4 3 4 3 1 1 3 2 1 0 0 1 1 1 1 2 1 2 2 3 3 5 5 4 4 4 6 5 3 2 4 5 7 9 2 4 3 7 4 5 6 5 7 10 6 2 1 6 8 9 7 10 16
18 16 17 15 14 13 13 13 12 13 12 7 6 5 6 4 2 3 6 9 11 8 1 1 0 5 7 5 7 7 3 4 2 2 1 2 1 1 1 1 2 2 2 1 0 1 2 1 2 0 0 3 1 2 1 4 6 5 7 9 8 5 4 1 3 4 8 10 11 2 7 8 10 6 7 6 10 12 10 6 3 7 5 8 8 10 12
17 17 16 14 14 13 12 12 12 12 11 7 4 5 4 3 3 3 3 5 6 5 3 4 1 0 6 5 3 3 4 4 5 5 1 5 3 1 2 3 2 4 5 3 3 3 0 2 2 2 2 2 1 4 3 2 4 9 12 8 6 2 1 4 4 4 7 3 2 3 5 6 5 14 15 14 9 4 3 4 4 12 3 8 7 11 15
16 17 17 14 13 13 12 12 12 12 11 7 5 3 0 1 2 3 5 3 5 3 1 5 4 3 2 0 2 2 3 3 4 5 2 5 6 2 1 3 4 3 4 2 4 3 2 2 1 4 4 3 3 5 5 4 6 6 6 9 5 2 3 5 4 7 10 9 11 10 9 13 14 13 16 15 12 8 6 5 8 2 5 12 5 6 7
17 18 17 15 13 12 11 11 11 11 11 7 3 2 2 2 1 0 1 1 3 5 4 6 5 3 1 2 1 2 3 4 4 4 2 6 3 3 3 4 2 2 2 3 2 3 3 2 3 2 3 1 2 2 2 3 2 2 3 5 2 3 3 5 6 8 8 9 8 10 11 10 12 14 16 17 17 10 9 9 7 6 9 12 4 4 7
17 17 17 16 13 11 11 10 10 9 10 6 2 2 1 1 1 1 2 1 1 1 3 3 2 6 1 1 3 3 3 2 1 1 4 4 3 3 2 4 6 7 5 0 2 2 3 3 2 1 3 4 2 2 2 3 2 2 2 5 2 3 5 6 7 8 6 9 9 12 12 10 10 12 13 15 14 15 12 13 12 13 10 7 7 9 13
17 16 17 16 13 11 10 10 9 9 7 4 3 0 1 2 2 1 1 2 3 3 1 2 3 4 3 2 2 2 2 3 3 1 2 3 3 1 2 7 9 8 7 2 2 5 5 6 6 2 3 4 2 3 5 1 1 1 1 2 4 3 5 4 2 2 5 9 8 7 8 6 10 11 11 11 12 14 13 11 12 9 8 12 14 10 14
17 16 15 15 13 11 10 9 9 8 4 2 0 2 1 1 1 1 3 3 2 2 0 2 2 2 3 1 2 4 3 5 2 4 3 4 2 1 6 8 10 9 6 6 6 8 6 6 9 8 6 10 3 3 2 4 2 3 2 2 3 3 4 5 1 3 5 4 2 6 6 9 11 10 6 7 9 9 5 2 2 4 6 5 8 10 13
17 16 15 16 14 11 10 8 8 8 3 2 1 2 1 0 1 1 0 1 3 3 2 1 1 2 2 2 4 2 3 4 3 5 3 3 6 4 5 7 5 8 6 9 9 6 8 10 11 10 10 10 10 9 8 6 7 4 5 3 3 2 3 2 1 1 4 7 3 9 12 4 2 5 4 5 4 6 3 3 9 6 3 2 8 9 5
17 16 15 14 14 13 13 10 8 6 2 3 2 2 0 0 2 1 1 1 1 1 1 1 1 2 3 5 6 3 3 4 2 2 3 2 4 5 4 7 4 6 5 7 6 8 11 12 12 10 10 12 13 11 11 12 10 8 6 4 4 6 7 5 1 2 5 5 7 7 0 7 7 5 1 2 3 8 9 10 10 9 5 2 2 7 11
16 15 15 14 15 14 11 11 8 7 2 2 2 3 2 1 2 2 2 1 1 2 1 3 2 4 6 7 5 5 7 5 6 3 7 4 10 10 6 6 2 5 4 5 10 11 11 10 9 8 11 13 14 15 14 14 12 10 10 8 5 6 7 6 3 2 5 5 6 2 5 6 7 7 8 8 1 8 12 4 13 12 14 14 12 12 13
16 15 15 15 14 13 11 9 8 7 4 3 3 4 2 2 2 2 1 2 3 2 2 3 3 7 7 7 7 4 4 4 6 7 7 8 6 5 2 2 3 5 7 12 12 10 6 8 9 9 11 8 9 12 14 15 14 12 9 10 8 7 7 4 3 3 2 4 1 4 4 1 0 3 8 8 5 5 12 2 12 16 16 13 11 13 12
17 16 15 15 14 14 13 11 10 9 7 4 3 3 3 2 2 1 2 1 2 3 4 6 7 7 6 5 5 7 6 7 5 4 4 2 4 8 7 3 5 7 9 7 6 2 4 3 5 5 3 1 2 4 10 13 14 14 13 12 10 9 6 6 4 2 3 4 2 6 4 2 6 4 8 11 5 9 5 5 8 14 15 16 13 15 15
16 16 15 15 15 14 12 11 8 8 6 4 3 3 3 4 3 2 1 1 3 1 3 4 0 3 4 4 3 6 5 4 5 4 5 5 3 3 4 8 8 8 6 4 3 2 0 1 4 4 4 1 3 3 4 5 7 13 13 12 11 10 8 4 2 2 2 0 4 2 1 6 2 3 6 3 5 7 7 4 4 14 18 16 14 14 15
15 15 15 15 15 13 12 10 8 6 5 2 2 3 3 3 3 2 1 1 0 3 3 6 4 4 3 4 4 5 4 4 3 5 6 2 4 6 6 5 8 4 3 1 0 2 1 1 4 3 3 3 1 2 4 6 4 8 11 12 13 10 10 5 2 2 4 1 1 2 3 2 3 10 12 11 6 8 2 4 4 10 15 17 15 16 17
15 15 15 15 13 12 12 11 8 6 5 2 2 2 2 3 3 3 2 1 2 4 0 1 1 2 2 4 3 2 0 2 2 4 5 5 4 5 9 7 5 1 1 1 2 2 2 2 3 5 5 4 4 3 3 3 7 9 13 12 13 11 8 6 5 5 5 3 2 3 4 3 5 12 12 13 9 4 5 2 3 10 16 16 15 16 17
15 16 15 14 13 13 12 11 9 6 5 1 2 2 2 2 3 3 2 2 2 3 3 4 4 2 4 2 4 2 1 1 1 1 3 4 3 3 5 5 6 3 1 3 2 2 2 2 6 5 5 2 4 4 2 2 5 8 9 9 7 7 6 7 8 5 6 7 5 3 3 2 10 12 15 13 8 3 2 3 2 9 14 14 13 14 15
15 15 14 14 13 12 11 10 9 7 4 2 2 1 3 3 3 3 0 1 2 3 2 1 3 5 2 1 2 2 1 2 2 3 5 5 2 2 6 2 0 4 5 2 2 2 4 4 3 2 4 4 3 5 6 4 4 3 11 9 6 5 4 4 4 5 6 6 4 5 1 1 10 13 9 11 1 5 5 3 4 7 11 14 12 13 15
14 14 13 13 13 12 12 11 8 6 5 3 2 1 2 2 3 5 3 1 1 3 4 4 2 6 1 2 2 3 4 3 1 2 1 4 3 7 6 3 2 1 4 1 2 1 3 6 7 2 3 4 3 5 3 2 4 5 1 2 3 2 3 3 4 3 3 2 2 1 2 2 13 15 5 18 6 4 4 4 5 7 10 13 13 11 13
14 13 13 13 12 12 11 10 7 5 4 2 4 0 2 0 2 3 3 1 1 4 5 1 0 5 2 5 6 6 5 7 3 2 4 4 2 2 3 1 3 2 2 2 3 3 1 4 5 3 2 3 6 5 8 7 2 9 6 4 6 6 2 2 1 2 2 2 2 1 4 6 9 10 7 6 5 7 10 8 8 10 11 13 12 12 12
13 13 13 12 12 12 10 8 6 4 4 1 4 2 0 2 1 1 2 2 3 3 4 3 1 5 8 7 7 7 9 11 9 6 4 4 1 3 3 2 3 1 1 0 1 1 0 2 3 4 4 4 3 5 8 5 7 6 7 5 5 7 5 3 4 2 1 0 3 3 1 6 8 8 8 8 8 9 10 9 6 8 11 13 10 13 14
13 13 12 12 11 10 9 7 5 3 3 2 4 1 3 1 2 1 2 2 2 3 3 4 3 6 5 8 12 11 11 10 8 6 6 3 4 1 4 3 4 3 1 0 2 2 5 1 3 3 5 2 5 6 3 3 2 7 7 7 4 4 7 5 3 4 7 3 1 3 8 10 5 6 7 9 9 8 9 10 10 10 10 9 11 13 13
13 13 12 11 10 8 8 7 6 3 2 2 5 2 1 0 2 1 0 1 0 5 4 1 3 4 2 5 4 2 5 5 8 10 5 6 4 4 1 3 2 0 1 3 4 2 3 1 3 0 3 3 6 4 6 5 6 7 4 6 5 4 8 4 4 9 4 4 4 10 10 13 8 4 7 7 5 7 6 8 8 11 13 14 13 13 13
13 13 11 10 9 8 7 6 4 3 0 0 4 3 1 0 1 1 1 0 1 1 1 6 3 7 3 4 6 6 7 7 6 7 8 9 9 5 3 2 2 1 5 4 2 1 1 3 3 1 4 3 5 4 3 4 2 7 6 6 6 3 10 3 8 10 3 5 6 9 13 12 5 4 5 6 6 10 10 7 8 9 12 12 12 13 14
13 12 11 10 8 8 7 5 2 1 1 1 4 2 2 2 0 1 0 1 0 0 2 3 6 4 3 3 3 3 10 8 8 10 11 11 12 10 5 4 5 1 1 1 0 2 1 1 3 2 4 3 5 4 5 6 4 5 7 8 7 8 8 5 10 6 7 6 3 15 11 7 9 4 4 6 8 10 14 11 9 9 10 13 14 12 11
13 11 10 9 8 7 6 4 1 1 3 4 3 2 2 2 2 4 2 1 1 1 2 3 5 7 4 7 6 6 6 6 5 7 8 8 7 4 3 3 5 5 4 4 1 1 1 0 1 4 3 3 5 3 3 3 3 4 6 9 10 5 7 9 7 7 5 7 10 14 10 6 9 12 12 13 11 11 13 14 11 9 10 10 12 13 13
12 11 9 8 8 7 5 4 3 3 3 5 3 1 2 2 3 4 3 1 1 1 2 3 5 8 7 4 4 5 7 6 4 4 5 6 5 3 4 4 2 3 2 4 4 3 2 4 4 3 3 2 4 4 4 3 3 1 6 10 10 9 10 9 8 7 8 11 11 9 8 12 12 13 15 13 10 10 14 15 14 11 8 8 11 12 10
12 10 9 8 7 6 4 3 4 3 4 4 3 1 2 5 5 4 3 2 1 0 2 3 4 3 3 5 6 4 6 7 8 8 7 7 6 4 2 2 0 2 1 2 2 3 3 4 4 4 3 4 4 4 4 4 6 8 10 11 11 9 10 11 10 11 9 10 12 11 10 11 12 13 14 14 11 10 14 15 14 12 11 9 9 10 10
12 10 8 7 7 5 4 4 3 4 5 3 1 1 2 2 1 4 4 3 3 2 1 2 2 1 2 2 1 2 3 5 7 9 8 5 4 3 2 1 2 2 2 2 1 2 1 1 2 3 4 4 3 3 3 4 4 5 7 11 10 10 10 9 9 10 9 12 11 11 12 12 12 12 12 12 11 10 11 14 14 13 12 10 9 10 9
12 10 8 6 6 6 3 3 4 4 5 2 2 1 2 1 0 1 5 3 2 2 1 2 4 4 4 1 1 1 1 2 3 4 4 2 2 1 1 1 1 2 2 2 1 1 1 3 3 4 2 5 4 2 2 4 4 5 11 12 11 10 12 12 9 9 11 12 12 12 11 10 9 10 10 10 10 11 12 12 14 14 13 10 10 11 9
12 9 7 6 6 6 5 3 2 5 2 3 2 0 1 1 1 0 4 4 3 1 0 2 2 1 1 2 1 0 1 1 1 1 1 0 2 1 2 3 1 1 1 1 1 0 2 2 1 3 2 5 4 1 2 3 7 9 10 10 10 10 11 11 12 12 12 12 14 12 6 8 9 10 10 12 14 13 13 14 14 13 13 12 9 10 10
11 9 7 6 6 5 5 3 4 6 4 5 4 2 1 2 3 4 6 5 2 1 1 0 1 1 0 0 2 2 2 1 2 2 1 0 0 0 1 0 1 1 3 1 2 1 1 0 1 2 1 1 2 2 2 6 7 7 9 11 10 11 11 12 11 12 12 13 11 11 12 14 15 14 13 14 14 14 14 14 12 11 9 9 11 12 10
11 9 6 5 4 4 3 3 3 5 2 1 2 3 3 4 5 6 4 2 1 0 1 0 2 2 3 3 1 1 2 0 1 1 0 1 1 1 1 1 1 0 2 2 0 0 2 1 1 2 1 1 1 1 2 5 6 7 8 9 10 11 10 10 9 13 14 13 12 11 12 13 13 12 10 10 10 10 11 10 10 11 11 11 12 12 10
11 7 5 4 4 4 5 5 2 0 1 2 2 3 2 6 5 6 3 2 1 0 0 0 1 1 3 2 1 3 1 1 1 1 2 1 1 0 0 1 4 3 3 1 1 0 0 1 1 2 4 3 1 2 1 7 9 8 8 9 10 11 10 10 10 13 14 13 12 13 14 13 13 11 11 12 12 9 7 8 9 10 9 9 10 9 7
6 3 5 5 7 6 2 1 1 1 1 1 2 2 7 6 5 3 2 1 1 1 1 1 1 2 2 1 1 2 0 2 0 0 0 0 3 2 1 2 1 1 1 2 1 3 2 3 1 3 5 2 4 4 7 10 10 10 9 10 10 11 12 15 15 16 14 13 13 13 16 16 15 13 12 12 12 10 6 8 9 10 10 8 9 8 7
4 8 9 7 3 2 1 2 1 1 1 1 3 6 7 5 2 2 1 1 1 0 1 2 0 4 4 4 2 4 1 1 0 0 1 1 2 1 2 1 2 0 1 2 1 1 3 3 3 2 4 5 5 9 10 10 11 11 11 10 9 9 11 11 14 15 14 14 13 12 13 15 15 13 12 13 12 12 5 8 8 9 12 12 9 7 8
4 3 2 1 2 2 1 1 0 2 4 8 6 2 3 3 1 1 2 1 1 1 1 1 2 1 0 2 1 2 1 2 1 0 1 1 1 0 0 1 1 0 1 0 0 1 1 3 3 2 2 3 3 5 7 8 8 9 9 8 9 9 10 11 13 13 14 13 12 15 15 14 15 15 14 15 15 13 10 6 7 8 9 10 9 8 7
1 0 3 2 2 1 2 0 2 1 2 2 1 0 1 0 0 0 1 1 1 1 1 2 4 2 3 1 4 2 1 1 1 1 1 1 1 2 1 2 1 1 1 2 0 2 1 3 1 2 3 6 7 9 8 7 7 7 8 7 6 7 9 10 11 13 14 13 14 15 14 15 16 16 14 14 14 13 10 6 5 7 8 8 8 7 6
2 0 0 1 0 2 1 3 4 1 0 1 1 2 1 1 1 2 0 1 1 1 2 2 3 4 5 2 0 1 0 0 1 2 1 2 0 1 1 1 0 0 1 1 1 0 1 1 0 1 2 6 7 8 7 7 7 7 7 6 6 7 8 8 10 11 12 12 12 12 13 14 16 13 14 14 13 14 12 11 5 6 7 8 8 7 7
1 1 1 0 1 1 1 1 1 0 0 1 0 0 1 1 0 0 0 0 1 2 2 1 0 1 1 1 1 1 0 0 1 2 3 1 1 1 1 0 0 1 1 0 1 2 2 2 1 1 3 5 6 7 7 6 6 7 7 6 6 6 8 9 10 11 13 13 12 12 12 13 14 14 14 16 14 12 11 11 12 8 3 5 7 8 7
3 1 1 4 2 1 1 3 2 1 0 0 1 1 0 2 0 1 1 0 2 1 2 1 2 1 3 6 4 2 1 0 1 1 1 0 1 1 1 0 1 2 0 1 1 2 2 1 0 1 3 5 5 4 4 5 5 4 6 4 4 5 6 7 8 10 12 12 12 12 12 13 14 14 14 14 14 14 13 15 16 13 10 6 3 5 5
3 3 3 2 1 2 1 1 1 1 1 1 2 2 2 1 0 0 3 2 1 0 4 0 2 0 0 1 1 0 1 0 1 0 1 1 1 2 1 0 1 1 0 0 1 1 1 0 1 2 4 5 5 4 5 4 5 4 4 3 2 3 4 5 7 8 9 11 12 12 12 13 12 13 14 15 17 17 15 16 16 13 11 10 9 6 4
3 1 1 1 1 1 0 1 0 1 1 1 1 1 1 2 5 2 1 4 1 2 2 2 4 2 2 0 1 0 0 1 2 1 0 0 1 1 1 1 0 1 1 1 2 1 0 1 2 3 6 5 5 6 5 5 4 5 4 3 3 4 4 4 4 6 9 9 10 10 11 13 13 13 14 15 17 18 16 17 17 15 14 14 11 10 9
2 1 1 0 0 1 1 2 1 2 1 2 1 1 1 2 5 2 3 3 2 5 3 0 1 1 2 1 0 0 1 0 1 1 1 0 0 1 1 0 1 1 1 1 2 1 1 1 4 4 6 7 8 7 5 5 4 3 5 3 4 5 5 5 5 4 5 7 9 9 10 11 12 13 14 14 14 15 17 18 17 16 15 16 15 14 12
1 1 0 2 2 2 1 1 0 1 1 1 1 4 3 6 3 5 6 1 2 5 6 5 0 1 1 1 1 0 0 2 1 0 0 1 1 0 0 1 3 4 2 2 1 2 1 4 4 5 5 6 7 6 5 5 5 4 4 4 4 4 6 5 5 5 6 7 8 9 10 10 11 12 12 12 13 14 15 16 17 16 16 18 14 12 13
1 1 2 1 1 1 1 0 1 3 1 2 5 5 5 6 6 6 4 1 4 5 4 2 3 3 0 0 0 2 2 1 1 1 1 1 1 1 1 3 1 0 1 1 1 2 3 4 4 5 5 6 7 6 5 5 5 6 6 4 4 4 4 5 5 6 7 6 8 10 10 11 11 11 12 13 14 14 14 14 16 17 17 16 15 15 15
1 1 1 0 3 0 0 3 1 2 2 4 4 3 4 1 3 6 3 3 5 1 2 1 1 1 1 1 3 1 1 1 1 1 0 0 1 2 1 1 1 1 3 2 3 4 4 4 4 5 6 5 5 5 6 5 5 6 6 5 4 4 3 3 4 5 5 7 7 8 9 9 10 11 11 12 12 13 14 13 13 13 14 15 16 16 16
2 1 0 1 1 1 2 1 1 2 6 4 3 3 1 1 5 7 6 1 2 3 1 0 0 1 0 1 2 2 2 1 2 1 2 2 1 0 0 1 2 2 1 1 4 4 4 5 4 4 5 5 5 5 5 5 4 4 5 5 3 3 2 2 2 2 3 4 4 5 6 7 7 8 8 9 10 11 10 12 13 14 14 14 14 15 17
0 1 1 1 3 2 0 0 0 3 5 5 3 2 0 1 4 6 1 2 2 1 1 1 1 3 1 1 1 2 0 1 1 0 3 1 0 0 3 1 3 3 3 2 2 5 5 5 3 4 4 4 4 4 4 6 6 5 4 4 4 3 3 3 3 2 2 1 2 3 3 4 6 7 8 9 7 7 9 11 12 13 14 14 14 14 15
1 1 1 2 2 3 2 3 3 5 6 6 3 4 3 3 3 3 1 1 2 3 4 1 0 1 1 2 2 1 0 0 2 1 1 1 1 1 1 2 3 4 5 5 5 5 5 5 3 5 4 5 5 4 4 4 4 4 3 3 4 4 4 5 5 5 3 1 1 4 4 3 4 5 5 6 6 7 8 11 11 11 11 12 13 14 14
1 0 1 2 1 2 4 1 1 5 7 6 3 5 4 1 3 4 0 2 3 4 2 1 1 1 2 1 1 1 0 2 1 1 1 2 2 1 2 3 4 4 4 4 5 5 4 4 3 4 4 4 4 4 4 4 3 4 5 3 3 4 4 5 5 5 5 5 3 2 2 3 4 4 5 7 8 8 10 10 10 10 9 9 11 12 12
Wind_Direction
337 338 337 336 335 336 335 338 341 336 346 351 352 339 3 24 254 279 305 326 357 70 66 26 36 358 310 312 263 266 303 24 347 13 359 18 357 7 49 34 46 349 86 301 119 98 249 169 213 191 197 246 229 6 343 4 324 335 310 295 288 309 103 293 282 288 259 265 257 274 281 209 256 226 322 324 262 242 232 221 181 190 226 209 247 255 265
337 336 335 333 333 334 334 337 340 333 360 355 334 332 345 329 303 316 312 335 10 72 55 6 351 349 327 7 300 304 22 39 9 7 24 25 358 1 325 346 135 212 16 205 58 315 35 184 144 314 234 284 143 61 3 352 336 357 4 342 348 8 286 102 333 353 332 304 23 102 32 43 46 323 316 299 315 349 314 95 92 212 192 195 168 240 255
336 331 332 332 332 335 334 336 334 334 350 9 342 333 317 293 242 244 305 352 30 76 119 86 284 9 345 321 358 1 10 20 37 324 21 11 346 8 313 29 319 46 311 323 223 307 183 305 261 201 181 230 138 169 276 339 321 310 304 307 305 261 277 68 121 157 202 214 213 142 336 332 312 284 310 336 1 346 3 239 182 221 220 172 204 238 242
333 333 331 331 331 334 334 332 331 334 342 1 339 329 311 347 10 321 347 8 28 77 120 100 102 135 9 355 317 350 353 336 344 9 307 55 335 202 232 340 52 38 9 8 343 316 102 153 245 128 253 272 269 216 196 312 315 308 319 333 350 266 247 185 194 181 230 274 325 251 210 302 311 311 312 302 317 305 248 277 273 231 175 204 228 224 264
333 329 331 330 336 334 332 328 329 334 336 356 336 314 81 292 79 327 349 333 49 45 27 30 41 12 349 353 280 3 11 307 313 8 4 349 344 315 85 49 31 350 12 352 318 255 269 269 286 243 246 229 227 201 189 231 282 302 318 345 337 264 277 247 221 233 248 276 281 292 289 281 278 289 292 295 293 291 278 234 237 65 122 245 213 248 250
333 332 333 334 336 333 329 324 328 330 332 356 355 338 320 49 273 123 212 59 318 355 19 19 347 298 259 239 280 335 354 12 9 323 32 332 350 29 327 38 55 340 318 303 291 315 284 258 237 284 243 326 281 310 217 206 275 349 325 340 323 265 253 245 217 243 249 259 276 284 279 261 268 270 273 280 283 289 262 250 246 281 227 241 233 213 232
333 329 334 331 334 335 329 325 328 329 327 349 340 8 352 124 262 321 339 307 10 191 285 326 318 322 280 243 15 339 1 359 55 258 317 338 323 48 357 312 333 322 327 49 259 275 319 295 279 241 279 227 244 275 314 279 165 135 324 325 260 296 254 268 256 270 269 277 272 270 262 260 257 252 250 257 269 272 260 253 250 244 258 299 240 223 233
332 331 335 334 332 332 326 326 328 325 330 335 327 162 325 356 12 356 319 231 283 293 337 304 7 357 336 8 281 290 305 330 319 261 236 310 294 358 330 310 319 319 311 279 215 232 218 249 267 253 266 277 201 242 205 172 2 98 210 299 297 255 276 246 195 286 277 278 279 259 235 248 267 259 263 274 281 280 259 245 247 243 267 262 264 254 259
330 334 332 335 331 329 324 325 326 319 360 308 31 312 201 297 319 301 324 323 255 213 243 332 344 7 329 63 288 334 11 342 357 293 207 194 240 320 306 300 308 309 308 291 256 259 256 258 248 249 250 265 191 202 281 163 177 175 179 197 271 299 278 346 319 360 302 280 224 254 281 269 246 264 271 297 332 334 328 177 286 193 226 255 260 266 262
332 334 333 331 328 326 325 323 316 314 360 283 242 248 109 311 290 29 37 283 337 348 321 298 306 336 231 283 349 346 311 314 0 324 273 223 224 243 264 283 294 287 294 280 267 277 282 276 274 265 253 244 248 231 240 176 174 175 193 191 233 224 275 295 303 212 264 256 283 309 310 291 224 238 253 289 322 338 316 29 33 16 217 207 227 248 355
331 333 333 329 326 329 328 321 312 316 334 299 307 267 47 353 312 328 186 275 241 186 46 254 139 259 297 326 321 311 286 312 343 332 298 298 251 229 254 278 277 266 265 261 268 283 281 277 273 266 253 246 247 244 239 226 206 187 160 163 216 232 244 263 272 178 254 294 308 295 230 193 210 141 142 81 34 12 13 37 6 355 23 269 223 268 296
331 333 326 328 326 323 324 318 309 303 244 246 227 266 226 177 225 190 253 300 312 124 203 267 242 283 296 306 306 304 305 303 300 226 260 267 284 297 292 277 249 285 238 268 303 303 302 290 267 258 250 248 245 244 237 231 220 202 180 180 188 222 233 235 228 204 274 299 328 157 183 215 144 137 53 24 91 39 347 314 24 5 4 6 357 345 337
330 329 327 326 326 323 324 321 311 300 269 242 229 251 221 181 220 205 198 200 265 221 270 272 252 257 272 288 294 279 259 284 288 289 263 269 287 296 228 257 258 266 307 307 311 319 319 291 292 273 270 258 245 240 235 226 220 198 187 178 188 215 226 235 233 217 323 357 296 186 196 51 99 141 47 27 87 39 352 262 29 16 11 356 350 339 333
328 329 328 325 326 327 323 319 309 299 286 256 231 226 246 208 235 148 191 193 259 196 238 279 274 274 272 264 279 294 306 303 289 258 273 232 260 282 285 239 251 286 297 305 303 333 315 17 320 339 313 234 249 252 224 216 207 194 178 177 189 214 227 228 259 172 173 228 212 236 324 316 19 6 359 11 347 330 346 325 32 15 5 359 347 341 343
328 330 330 325 326 326 325 320 314 311 307 269 229 239 239 223 214 191 250 219 278 293 152 268 212 263 288 287 294 303 300 295 330 299 269 290 262 231 252 288 294 297 309 331 324 20 247 347 307 311 270 203 248 252 132 204 185 194 182 179 189 201 215 196 191 246 190 129 297 322 137 168 197 154 294 304 269 285 279 269 310 9 358 351 349 350 343
330 327 327 328 330 331 331 337 333 320 310 276 209 227 228 230 212 200 176 171 187 290 235 235 271 290 292 291 289 283 279 304 287 292 312 299 263 300 289 284 292 302 329 76 118 305 356 24 286 275 279 272 291 288 218 151 157 184 181 180 192 201 222 255 200 300 28 354 208 247 178 153 121 314 316 309 305 288 209 226 46 6 347 343 343 351 355
331 327 329 331 337 338 337 338 335 324 322 225 231 212 258 189 189 195 187 190 170 249 254 251 179 222 293 291 299 306 161 233 265 334 325 317 308 304 301 315 310 36 320 53 349 5 318 268 224 247 264 264 261 270 307 198 154 149 170 180 190 200 205 206 241 252 223 231 276 268 231 233 336 321 316 311 318 50 140 137 54 351 337 336 339 357 359
329 328 334 338 339 341 338 338 340 331 327 164 176 226 256 188 197 155 197 168 200 275 257 223 202 223 245 221 270 275 255 1 7 274 250 281 299 313 320 339 333 320 354 1 360 346 287 256 311 297 292 223 277 287 279 314 139 139 158 160 164 186 194 198 214 210 229 226 245 290 316 9 338 327 316 318 323 182 96 122 7 325 327 329 339 356 1
329 333 336 338 339 338 340 338 337 341 342 126 170 241 252 222 183 181 158 220 186 259 263 270 222 243 264 301 234 237 263 290 285 293 306 319 270 245 283 260 18 315 9 360 351 338 318 296 214 270 305 303 332 329 319 359 28 91 126 142 153 162 192 184 197 230 226 213 209 223 212 97 313 330 323 333 42 92 119 86 29 332 333 336 341 356 356
332 337 341 340 339 338 340 342 339 339 339 181 170 201 278 192 181 182 181 215 202 265 278 255 206 245 223 238 288 312 317 306 179 227 222 271 272 341 354 18 321 329 311 360 328 293 328 330 335 315 309 312 313 299 315 50 34 49 127 35 61 39 173 126 188 250 211 211 207 140 199 339 355 321 359 16 42 60 27 2 358 347 339 349 346 360 350
334 338 340 338 339 338 339 339 346 341 331 137 152 107 323 306 156 198 195 196 245 286 297 301 206 252 238 246 233 229 223 242 196 204 225 227 269 20 337 333 276 11 302 3 342 327 4 301 322 321 291 307 313 331 350 321 28 25 18 96 73 358 82 33 336 356 262 85 72 128 347 322 349 12 66 72 27 9 17 8 355 351 355 354 348 346 352
337 337 340 338 338 337 343 348 355 2 328 149 147 148 175 283 166 173 187 196 230 225 247 233 197 250 246 244 239 224 227 238 232 211 246 285 235 202 243 262 286 209 261 12 342 308 303 277 270 316 325 310 288 330 319 354 33 333 10 12 99 26 11 335 290 53 63 16 28 29 323 355 33 41 51 57 26 21 20 15 11 351 344 341 343 340 339
337 339 338 338 336 344 345 344 358 16 335 151 135 165 190 333 328 15 133 256 233 263 273 283 295 273 272 249 238 234 237 237 251 226 201 197 300 243 227 263 278 199 228 158 260 266 277 324 292 298 300 333 333 317 327 23 27 4 28 18 61 67 358 295 273 336 307 226 41 43 360 353 20 59 57 41 14 10 20 9 359 352 331 337 337 331 332
336 337 338 336 338 341 343 342 336 355 333 126 152 142 182 192 281 341 288 247 301 304 310 356 26 329 347 329 330 212 198 223 223 227 189 173 202 284 278 223 222 275 249 226 196 257 290 241 271 105 299 311 319 325 342 359 32 348 341 22 355 25 15 15 13 334 338 146 54 25 344 319 315 123 94 80 31 14 1 1 2 344 332 330 333 331 329
333 336 338 339 337 338 337 341 342 337 168 176 159 207 137 38 234 231 92 348 344 27 332 309 269 238 275 294 289 269 248 211 178 173 172 190 201 208 231 172 180 313 306 323 134 109 305 300 321 328 307 355 351 335 348 342 8 351 15 18 351 0 3 8 359 334 330 342 6 5 329 291 263 145 84 65 17 352 338 351 343 335 322 319 321 329 327
335 336 336 337 337 333 337 338 332 101 132 186 156 151 194 198 221 142 199 309 257 175 328 306 284 303 270 296 297 282 287 275 174 168 183 194 203 215 247 347 327 42 294 296 95 322 272 287 285 277 321 315 16 341 342 347 323 331 22 23 349 308 328 13 336 316 306 284 3 352 341 65 83 60 39 8 347 333 322 329 325 320 321 320 318 322 321
333 334 333 332 331 331 328 326 317 165 161 117 110 132 168 253 205 167 164 170 85 350 15 272 281 296 344 326 282 297 319 337 140 155 178 193 207 219 245 282 305 322 344 341 18 89 69 275 236 334 359 321 339 317 337 325 345 3 14 5 348 343 22 346 330 339 355 2 337 345 343 319 318 317 318 321 325 321 311 308 308 303 309 311 309 312 320
331 331 329 327 325 324 317 280 252 182 172 160 152 170 201 220 231 206 200 142 121 168 221 266 302 294 305 263 295 328 341 11 61 137 167 185 193 196 218 234 265 309 338 355 337 3 323 356 357 342 320 357 344 331 337 285 269 320 10 3 359 9 351 346 347 340 319 326 323 322 303 291 285 296 305 302 300 297 293 292 288 285 274 273 288 294 306
326 326 325 322 318 312 301 274 255 235 168 140 143 159 264 232 238 235 216 154 123 141 244 267 282 322 9 308 320 353 14 28 48 60 68 81 90 80 72 21 3 323 32 14 351 357 9 13 356 348 346 333 312 311 330 6 21 27 1 344 354 351 347 345 335 319 298 313 322 318 307 299 299 296 290 288 284 277 274 275 275 271 271 266 267 277 284
322 319 319 316 308 299 268 258 252 222 164 126 135 35 353 322 217 204 205 176 149 112 69 7 7 265 309 296 317 355 26 30 50 55 55 61 65 65 26 360 47 55 108 101 108 60 62 199 291 274 288 309 338 311 16 352 28 21 349 346 343 334 340 333 327 325 319 320 313 313 307 296 288 281 279 276 275 262 259 265 267 266 260 248 251 264 255
317 315 309 300 292 287 251 208 221 187 144 95 81 59 44 29 302 180 158 166 136 110 163 158 240 300 326 263 169 342 113 65 59 62 63 70 78 70 344 44 45 360 45 356 41 284 289 16 330 324 306 346 359 30 349 360 16 359 352 343 341 330 334 327 323 317 324 320 319 316 298 287 287 293 283 273 262 254 251 256 258 257 253 247 245 253 257
313 304 297 288 280 270 248 211 197 158 147 134 141 181 200 200 209 194 134 117 105 73 99 329 331 352 303 304 301 295 118 29 71 25 357 30 8 5 41 68 87 335 55 123 248 359 18 284 332 310 343 335 349 30 357 353 22 3 331 338 337 334 327 323 331 333 326 320 324 322 311 322 320 313 299 296 289 273 254 245 248 251 252 247 247 248 248
309 298 287 278 281 263 215 168 172 164 191 230 240 303 191 165 151 134 127 114 78 196 156 56 233 271 305 271 321 345 96 36 9 41 18 318 155 359 27 359 30 42 303 51 359 115 256 155 302 335 341 338 20 20 345 19 9 327 334 337 333 335 329 325 324 331 331 329 329 329 328 325 318 308 296 287 277 268 261 248 242 250 249 249 245 247 239
304 289 276 256 247 240 211 134 144 184 264 340 310 261 225 164 117 135 135 90 125 115 86 97 337 335 251 323 111 308 31 96 276 69 18 302 147 70 317 13 314 55 333 70 227 42 313 224 17 279 308 13 333 346 32 344 339 340 340 332 333 332 328 323 321 341 336 330 322 324 320 308 301 295 295 295 299 287 266 242 238 243 244 241 239 230 228
309 282 247 219 204 164 126 115 82 93 198 258 245 262 179 161 154 169 164 132 104 274 23 306 135 12 345 352 76 266 306 79 302 292 150 279 4 82 291 40 319 63 300 157 37 114 348 42 242 37 342 293 324 27 357 333 333 336 337 336 337 334 333 342 346 342 337 332 328 332 328 326 329 334 330 323 319 306 258 241 238 245 245 235 234 232 220
343 145 155 148 128 136 113 81 92 87 5 255 243 162 143 147 141 135 154 134 140 151 113 249 74 208 161 171 311 266 272 277 186 23 202 18 353 2 73 104 21 269 264 50 334 336 6 303 42 17 316 22 16 354 341 351 348 334 335 339 341 343 341 340 334 338 333 327 327 335 337 340 344 341 334 330 323 318 257 236 239 248 249 245 234 232 229
79 124 125 112 87 49 31 212 269 171 214 225 169 133 124 120 60 90 55 24 331 119 169 157 88 235 159 204 252 282 70 311 285 47 345 115 196 286 67 47 105 174 35 358 18 29 277 338 79 13 4 21 347 351 355 345 351 341 337 339 339 340 338 334 339 339 338 337 336 345 347 346 345 345 344 338 331 325 290 221 224 231 245 248 248 241 242
114 98 87 46 55 40 349 316 214 259 151 130 129 81 3 32 161 328 12 40 265 151 328 75 228 251 306 85 290 241 124 259 80 149 311 221 66 302 273 117 214 102 22 249 260 142 19 32 32 43 350 338 324 355 357 340 329 334 338 338 336 345 336 331 331 339 343 345 351 351 352 353 351 348 347 344 339 327 315 267 211 226 239 250 253 252 257
51 65 51 31 98 193 197 259 289 322 76 359 58 57 296 206 71 359 257 246 46 296 255 126 248 184 145 175 261 288 173 150 353 42 82 266 108 319 16 76 298 83 311 22 29 162 20 14 353 25 8 342 351 342 333 322 328 339 338 326 326 342 337 331 336 347 351 352 345 345 347 349 347 344 348 348 342 335 329 311 218 212 220 235 244 246 247
58 43 132 52 154 242 323 299 322 313 272 281 353 99 319 292 81 288 240 12 325 220 118 286 214 177 185 197 221 298 267 77 48 304 205 304 37 143 243 101 261 92 313 93 247 315 117 88 303 48 360 346 332 316 327 322 323 328 316 314 332 334 335 335 336 341 345 346 348 345 347 353 357 353 351 352 349 348 345 341 311 217 214 222 224 228 234
48 120 174 188 209 151 255 287 355 47 3 320 357 345 80 341 164 197 46 27 230 250 191 177 5 337 226 125 149 219 284 109 145 124 115 222 258 60 58 88 267 77 352 272 269 92 67 90 75 91 353 317 303 313 318 319 319 323 316 320 333 335 333 333 336 344 350 349 349 350 350 350 358 1 359 357 357 344 344 358 356 346 271 215 222 226 223
194 177 148 113 106 89 26 25 40 30 357 202 106 288 206 237 322 4 131 47 284 296 304 165 293 213 242 191 207 164 291 185 134 124 91 357 277 125 201 134 6 100 63 241 113 49 83 80 7 345 304 306 304 310 321 319 319 313 310 312 324 329 329 339 342 348 353 350 348 352 353 352 1 6 5 7 5 6 7 6 2 2 358 340 260 229 222
70 51 61 74 46 21 103 36 327 97 91 350 37 350 1 23 288 41 289 270 303 122 262 216 236 206 243 82 11 311 195 154 116 13 79 235 302 42 90 358 54 18 255 30 72 50 62 192 31 297 287 306 309 316 318 311 304 303 291 289 304 321 328 343 357 353 350 352 353 353 353 357 360 4 7 14 13 10 8 12 8 2 5 23 29 30 70
102 75 51 346 50 323 134 9 235 349 338 89 88 304 309 344 309 358 346 282 284 304 246 1 295 60 302 280 160 265 358 13 63 88 13 113 77 345 53 63 224 235 72 26 50 88 210 84 39 304 297 305 319 329 326 324 325 313 315 311 331 356 355 351 360 3 1 357 2 358 358 1 1 6 12 17 20 22 17 18 14 13 16 24 27 30 35
127 15 30 47 23 264 60 316 348 101 347 286 153 209 168 241 263 192 223 249 141 275 296 210 216 142 240 271 94 109 122 192 304 96 253 171 10 18 89 272 259 37 75 348 327 315 70 336 307 310 323 325 320 318 326 331 333 319 292 309 355 346 358 8 6 6 6 6 2 1 9 5 8 9 12 13 18 26 28 23 15 19 23 30 29 27 27
149 195 97 61 336 313 97 233 3 3 296 153 209 206 186 235 210 249 255 164 255 295 323 306 129 147 269 253 129 223 10 93 43 305 199 68 100 326 206 89 70 61 14 19 339 314 276 260 287 301 302 307 307 310 329 336 331 335 351 344 322 342 353 1 3 4 4 2 2 9 10 14 16 13 11 13 19 22 25 27 25 25 26 32 25 21 22
71 30 85 119 107 281 87 302 243 207 187 225 229 194 193 226 212 230 252 192 237 259 276 254 178 184 125 303 130 357 28 62 77 308 66 40 32 261 28 85 9 27 77 321 320 287 280 291 293 288 299 308 314 319 333 334 340 343 331 321 340 349 348 1 0 6 357 1 3 6 10 13 16 13 14 19 23 23 22 25 27 29 33 33 28 28 29
260 251 108 306 244 192 160 252 214 302 249 207 239 206 235 252 340 306 263 213 230 283 336 11 359 360 19 313 86 139 285 8 63 314 32 218 12 43 10 40 52 235 164 176 241 228 247 262 268 288 298 309 307 323 335 338 339 341 330 331 335 342 349 352 6 360 360 6 12 11 10 12 15 16 18 18 22 23 22 23 24 28 33 35 33 31 33
136 122 177 202 199 170 226 276 52 266 274 290 297 295 313 329 260 263 279 279 328 312 274 134 189 93 315 306 68 33 360 329 74 282 4 28 76 267 66 269 331 322 274 174 227 238 233 253 273 288 297 310 321 327 325 323 333 338 326 317 327 311 326 359 338 6 10 14 22 24 19 16 18 19 19 22 24 23 23 26 27 30 30 33 35 34 32
82 309 41 85 345 322 272 73 61 283 303 316 344 305 273 263 273 273 243 327 309 21 15 24 40 94 259 62 360 3 307 319 133 20 57 23 224 143 63 339 243 193 261 262 246 252 262 273 296 303 306 314 316 325 325 325 338 341 331 327 349 353 2 22 1 7 45 46 50 59 36 34 26 26 26 23 17 18 25 34 36 34 32 29 31 34 35
31 117 241 184 178 232 166 289 282 278 305 286 246 246 182 227 218 266 230 158 27 40 39 42 309 67 13 24 48 36 265 152 50 41 145 213 204 88 157 205 239 215 234 243 247 262 271 278 276 282 302 313 306 308 322 324 328 312 318 359 12 4 9 15 11 10 8 354 60 74 60 45 37 42 36 31 27 26 34 37 37 40 41 38 33 32 35
52 23 304 302 201 168 180 193 183 213 233 241 226 243 154 245 244 240 254 86 64 66 334 292 66 32 57 39 220 206 301 44 57 44 15 286 141 136 223 201 238 245 241 271 288 281 277 275 263 268 280 291 307 321 324 329 338 344 350 354 23 29 21 14 10 10 5 355 1 65 88 71 62 45 49 46 33 32 37 35 29 31 40 45 46 42 38